Location: Home
(42.5358°N, 72.7383°W)
Time: 00:32:52
(UTC-05:00)

Vanguard 1 - Pass Details

Date: 05 December 2021
Orbit: 652 x 3830 km, 34.2° (Epoch: 21 January)

Event Time Altitude Azimuth Distance (km) Brightness Sun altitude
Rises 05:01:29 0° 282° (WNW) 7,941 - -22.1°
Reaches altitude 10° 05:07:37 10° 276° (W) 6,751 - -21.0°
Exits shadow 05:14:00 22° 267° (W) 5,500 13.2 -19.9°
Maximum altitude 05:26:05 41° 217° (SW) 3,634 12.7 -17.7°
Drops below altitude 10° 05:37:46 10° 152° (SSE) 4,343 14.0 -15.6°
Sets 05:40:46 0° 144° (SE) 4,976 14.6 -15.1°
